Hourly Weather Roundup
Issued by NWS

Home | Current Version | Previous Version | Text Only | Print | Product List | Glossary On
Versions: 1 2 3 4 5 6 7 8 9 10 11 12 13 14 15 16 17 18 19 20 21 22 23 24 25 26 27 28 29 30 31 32 33 34 35 36 37 38 39 40 41 42 43 44 45 46 47 48 49 50
000
NZUS43 KILX 010010
HWRCRS

CRS HOURLY WEATHER ROUNDUP
NATIONAL WEATHER SERVICE, LINCOLN IL
700 PM CDT FRI SEP 30 2016


CITY           SKY/WX    TMP DP  RH WIND       PRES   REMARKS
CHAMPAIGN      CLOUDY    63  60  90 N8        30.01S
LAWRENCEVILLE  CLOUDY    63  56  78 SE5       30.00R
PEORIA         CLOUDY    62  61  96 N6        30.06S
SPRINGFIELD    MOCLDY    64  61  90 N8        30.04S
$$


CITY           SKY/WX    TMP DP  RH WIND       PRES   REMARKS
BLOOMINGTON    RAIN      62  60  93 N13       30.05S
DECATUR        CLOUDY    64  58  80 N12       30.02R
EFFINGHAM      MOCLDY    64  62  94 NW5       30.01S
FLORA          MOCLDY    64  61  89 N5        30.00R
GALESBURG      CLOUDY    62  58  86 N10       30.09S
JACKSONVILLE   CLOUDY    65  59  80 N8        30.06R
LACON          DRIZZLE   64  58  83 NE8       30.06R
LINCOLN        CLOUDY    65  61  88 N3        30.03R
LITCHFIELD     RAIN      62  59  91 W5        30.03S

CITY           SKY/WX    TMP DP  RH WIND       PRES   REMARKS
MACOMB         CLOUDY    63  58  83 N10       30.10S
MATTOON        LGT RAIN  63  60  90 N5        29.99S
MOLINE         CLOUDY    63  58  83 N6        30.11S
OLNEY          CLOUDY    59  59 100 CALM      30.00R
PARIS          MOCLDY    62  60  93 CALM      30.00S
PONTIAC        CLOUDY    64  62  93 N13       30.05F
QUINCY         CLOUDY    64  57  78 N8        30.08S
RANTOUL        CLOUDY    65  62  90 N12       30.01S
ROBINSON       CLOUDY    59  58  97 SE5       30.01R
TAYLORVILLE    CLOUDY    62  61  97 NW7       30.03R
TERRE HAUTE    CLOUDY    61  58  90 CALM      29.99S
$$


CITY           SKY/WX    TMP DP  RH WIND       PRES   REMARKS
BURLINGTON     CLOUDY    63  58  83 NW12      30.10S
CHICAGO        CLOUDY    63  58  83 NE13      30.07F
DES MOINES     CLOUDY    64  55  72 NE7       30.16S
EVANSVILLE     RAIN      59  56  89 CALM      30.01S FOG
INDIANAPOLIS   CLOUDY    62  60  93 E3        29.98S
KANSAS CITY    PTCLDY    64  51  62 N6        30.13S
MILWAUKEE      CLOUDY    61  57  87 NE12      30.13S
ST LOUIS       LGT RAIN  65  59  81 NW10      30.06R
$$





USA.gov is the U.S. government's official web portal to all federal, state and local government web resources and services.